www.pogodaiklimat.ru

Погода и климат >> Архив погоды >> Россия >> Забайкальский край >> Петровский Завод


ПОГОДА в Петровском Заводе

  • Прогноз погоды в Петровском Заводе
  • Монитор погоды в Петровском Заводе

АРХИВ ПОГОДЫ в Петровском Заводе

Время (UTC), дата Ветер
(напр.,м/с)
 
Видим.   Явления Облачность Т
(С)
Тd
(С)
f
(%)
Тe
(С)
Тes
(С)
Комфортность P
(гПа)
Po
(гПа)
Тmin
(С)
Tmax
(С)
R
(мм)
R24
(мм)
S
(см)
12 13.05 С 4
{11}
20 км 10/0
[Ac As]
+8.4 -2.3 47 +6 +6 1003.6 911.1 +16.4
15 13.05 СВ 1 н/о н/о +2.5 -5.4 56 +1 +1 1006.7 912.0
18 13.05 С 3 н/о 10/0
[Ci sp]
-2.9 -7.0 73 -8 -8 1007.5 910.9
21 13.05 ЮВ 1 н/о н/о -2.7 -6.7 74 -5 -5 1005.6 909.2
00 14.05 С 6-10
{13}
20 км 8/5 600 м
[Cb cap As trans Ci sp]
+3.7 -5.6 51 -1 -1 1001.0 907.2 -4.4
03 14.05 СВ 6-11
{12}
н/о н/о +9.3 -5.4 35 +6 +6 995.5 903.9
06 14.05 С 5
{11}
20 км 8/3 600 м
[Cb cap Cs]
+13.3 -5.8 26 +12 +16 994.3 904.0
09 14.05 З 6-12
{12}
н/о н/о +8.3 -3.7 42 +5 +5 999.9 907.7
12 14.05 СЗ 4
{12}
20 км 8/8 600 м
[Cb cap]
+4.2 -3.3 58 0 0 1004.1 910.1 +14.2
15 14.05 З 1 н/о н/о +1.9 -3.1 69 +1 +1 1006.1 911.3
18 14.05 С 2 н/о 9/9 600 м
[Cb cap]
+1.9 -2.4 73 -1 -1 1004.3 909.6
21 14.05 штиль 0 н/о н/о -0.6 -3.0 84 -2 -2 1004.0 908.5
00 15.05 С 5 20 км 10/4 600 м
[Cb cap As op]
+3.0 -3.4 63 -2 -2 1001.6 907.5 -0.8
03 15.05 С 4-10
{10}
н/о н/о +6.0 -4.7 46 +3 +3 999.2 906.3
06 15.05 СЗ 6-12
{14}
20 км 8/6 600 м
[Cb cap Ci sp]
+9.0 -6.1 34 +6 +8 997.4 905.5
09 15.05 СЗ 5-11
{13}
н/о н/о +8.9 -9.2 27 +6 +6 997.9 906.0
12 15.05 СЗ 4-10
{12}
20 км 8/1 600 м
[Cb cap Ci sp]
+7.5 -9.6 29 +5 +5 1000.2 907.6 +10.6
15 15.05 З 4
{10}
н/о н/о +4.3 -8.0 40 +1 +1 1002.3 908.5
18 15.05 ЮЗ 2 н/о ясно -0.4 -7.6 58 -4 -4 1004.2 908.7
21 15.05 ЮЗ 1 н/о н/о -4.8 -9.0 72 -7 -7 1006.4 909.2
00 16.05 З 2 20 км ясно +6.4 -9.4 31 +5 +10 1003.6 910.3 -6.0
03 16.05 СЗ 5-11
{13}
н/о н/о +9.9 -12.6 19 +8 +8 1002.2 910.1
06 16.05 СЗ 5-13
{17}
20 км 6/6 600 м
[Cb cap]
+11.4 -15.7 13 +10 +13 1001.8 910.2
09 16.05 С 5-10
{15}
н/о н/о +10.2 -13.9 17 +8 +8 1003.8 911.7
12 16.05 СЗ 3
{12}
20 км 8/8 1000 м
[Cb cap]
+7.8 -12.0 23 +6 +6 1006.9 913.7 +11.8
15 16.05 С 1 н/о н/о +5.1 -10.0 33 +5 +5 1009.3 915.1
18 16.05 З 3 н/о 4/0
[Ci sp]
+2.1 -7.4 49 -1 -1 1010.6 915.3
21 16.05 З 2 н/о н/о +1.2 -6.3 57 -2 -2 1011.6 916.0
00 17.05 СЗ 4-10
{10}
20 км 6/4 1000 м
[Cb cap Ci sp]
+4.8 -5.8 46 +1 +3 1011.6 917.1 -0.1
03 17.05 СЗ 5-11
{12}
н/о н/о +6.9 -7.4 35 +4 +4 1011.5 917.7
06 17.05 З 5-11
{15}
20 км в посл. час ливневой снег 8/6 600 м
[Cb cap Ci sp]
+8.2 -5.6 37 +5 +8 1011.2 917.9
09 17.05 С 5-10
{15}
н/о н/о +8.9 -12.9 20 +6 +6 1011.6 918.3
12 17.05 СЗ 3
{11}
20 км {ливн. осадки} 8/3 600 м
[Cb cap Ci sp]
+6.3 -15.7 19 +4 +4 1013.9 919.6 +9.2 0.0
15 17.05 ЮЗ 1 н/о н/о +3.8 -14.7 24 +4 +4 1015.6 920.3
18 17.05 З 2 н/о 9/9 600 м
[Cb cap]
+1.7 -11.4 37 -1 -1 1016.8 920.8
21 17.05 ЮЗ 1 н/о н/о -0.5 -9.3 51 -2 -2 1017.9 921.1
00 18.05 ЮЗ 4 20 км 9/1 600 м
[Cb cap As trans]
+2.3 -10.1 39 -2 -0 1018.1 922.2 -0.8
03 18.05 СЗ 3
{12}
н/о н/о +5.7 -8.8 34 +3 +3 1017.4 922.6
06 18.05 З 5
{11}
20 км 10/3 600 м
[Cb cap As trans]
+5.4 -7.0 40 +2 +4 1018.2 923.3
09 18.05 З 4
{10}
н/о н/о +5.6 -8.2 36 +3 +3 1018.0 923.1
12 18.05 С 4
{10}
20 км 10/3
[Frnb As op]
+4.6 -7.2 42 +1 +1 1018.8 923.6 +6.1
15 18.05 СЗ 2 н/о н/о +1.7 -2.2 75 -1 -1 1020.3 924.0
18 18.05 ЮЗ 2 н/о слаб. снег 10/0
[As op]
+0.4 -0.5 94 -3 -3 1019.5 922.9
21 18.05 ЮЗ 2 н/о н/о +0.6 -0.6 92 -3 -3 1019.1 922.6
00 19.05 С 2 20 км {снег} 10/6 600 м
[Cb cap Cs]
+4.1 -2.6 62 +2 +3 1018.4 923.1 +0.3 4 3
03 19.05 С 3 н/о н/о +7.2 -4.6 43 +5 +5 1017.5 923.3
06 19.05 С 5
{10}
20 км 8/8 600 м
[Cu hum]
+12.0 -5.8 28 +10 +12 1015.0 922.5
09 19.05 СЗ 4
{10}
н/о н/о +12.8 -7.9 23 +12 +12 1014.4 922.1
12 19.05 С 4
{11}
20 км ясно +10.5 -8.8 25 +9 +9 1015.6 922.5 +13.4
15 19.05 С 2 н/о н/о +1.0 -7.1 55 -2 -2 1019.5 923.0
18 19.05 С 1 н/о ясно -5.1 -8.5 77 -7 -7 1021.9 923.2
21 19.05 С 1 н/о н/о -8.2 -10.3 85 -11 -11 1022.9 922.9
00 20.05 штиль 0 20 км 3/0
[Cs]
+4.1 -5.7 49 +4 +10 1017.8 922.5 -8.2
03 20.05 СВ 3 н/о н/о +14.6 -9.7 18 +14 +14 1012.1 920.6
06 20.05 С 3
{10}
20 км ясно +17.6 -12.6 12 +18 +30 опасность
простуды
1008.9 918.5
09 20.05 З 4
{14}
н/о н/о +18.5 -12.5 11 +18 +18 1007.7 917.7

 

Местоположение метеостанции Петровский Завод (Забайкальский край, Россия): широта 51.32 долгота 108.80 высота над уровнем моря 806 м.

В архиве по умолчанию представлена погода в Петровском Заводе за последнюю неделю. Архивные данные за месяц целиком и за предыдущие месяцы, начиная с января 2011 года, Вы можете получить, выбрав интересующий диапазон дат из раскрывающегося списка и нажав кнопку "Ввод!".


*Определитесь, кто Вы:
робот инопланетянин человек

Внимание! Время в таблицах - всемирное. Для получения местного времени необходимо прибавить поправку, которая равна 9 ч.

Смотрите также архив погоды в соседних городах и на ближайших метеорологических станциях:

Погода в Мухоршибири (Бурятия, Россия) (77 км)
Погода в Новой Курбе (Бурятия, Россия) (83 км)
Погода в Улан-Удэ АМС (Бурятия, Россия) (91 км)
Погода в Улан-Удэ (Бурятия, Россия) (100 км)
Погода в Красном Чикое (Забайкальский край, Россия) (106 км)
Погода в Хилке (Забайкальский край, Россия) (111 км)
Погода в Хоринске (Бурятия, Россия) (113 км)
Погода в Иволгинске (Бурятия, Россия) (121 км)
Погода в Бичуре (Бурятия, Россия) (121 км)
Погода в Черемхово (Забайкальский край, Россия) (123 км)

Пояснения к столбцам:

Ветер - указаны скорость ветра в м/с - средняя за 10 мин, порывы в срок и между сроками (в фигурных скобках) и направление, откуда дует ветер: С - северный, СВ - северо-восточный, В - восточный, ЮВ - юго-восточный, Ю - южный, ЮЗ - юго-западный, З - западный, СЗ - северо-западный.
Видимость - горизонтальная дальность видимости в метрах или километрах. При видимости от 1 до 10 км при отсутствии осадков обычно наблюдается дымка, при ухудшении видимости до 1 км и менее - туман. В сухую погоду видимость может ухудшаться дымом, пылью или мглою.
Явления - указаны атмосферные явления, наблюдавшиеся в срок или в последний час перед сроком; фигурными скобками обозначены явления, наблюдавшиеся между сроками (за 1-3 часа до срока); квадратными скобками обозначены град или гололедные отложения с указанием их диаметра в мм.
Облачность - указаны через наклонную черту общая и нижняя облачность в баллах и высота нижней границы облаков в метрах; квадратными скобками обозначены формы облаков: Ci - перистые, Cs - перисто-слоистые, Cc - перисто-кучевые, Ac - высококучевые, As - высокослоистые, Sc - слоисто-кучевые, Ns - слоисто-дождевые, Cu - кучевые, Cb - кучево-дождевые. Подробнее классификацию облаков см. в Атласе облаков (PDF).
T - Температура воздуха - температура, измеренная на высоте 2 м над землей.
Td - Температура точки росы - температура, при понижении до которой содержащийся в воздухе водяной пар достигнет насыщения.
f - Относительная влажность воздуха - влажноcть воздуха, измеренная на высоте 2 м над землей.
Te - Эффективная температура - температура, которую ощущает одетый по сезону человек в тени. Характеристика душности погоды. При расчете учитывается влияние влажности воздуха и скорости ветра на теплоощущения человека.
Tes - Эффективная температура на солнце - температура, которую ощущает человек, с поправкой на солнечный нагрев. Характеристика знойности погоды. Зависит от высоты солнца над горизонтом, облачности и скорости ветра. Ночью, в пасмурную погоду, а также при ветре 12 м/с и более поправка равна нулю.
P - Атмосферное давление - приведенное к уровню моря атмосферное давление.
Po - Атмосферное давление - измеренное на уровне метеостанции атмосферное давление.
Tmin - Минимальная температура - минимум температуры воздуха на высоте 2 м над землей.
Tmax - Максимальная температура - максимум температуры воздуха на высоте 2 м над землей.
R - Количество осадков - Количество выпавших осадков за период времени, мм. При наведении курсора мыши на число - период времени, за который выпало указанное количество осадков.
R24 - Количество осадков - Количество выпавших осадков за 24 часа, мм.
S - Снежный покров - Высота снежного покрова, см. При наведении курсора мыши на число - состояние снежного покрова и степень покрытия местности в баллах.